Weather History for Elmira, NY

Change the Weather History Date:

Tuesday, November 13, 2012

  Actual Average Record
Temperature  
Mean Temperature 39 °F -  
Max Temperature 43 °F 46 °F 70 °F (1964)
Min Temperature 35 °F 30 °F 15 °F (1976)
Degree Days  
Heating Degree Days 26    
Moisture  
Dew Point 30 °F    
Average Humidity 75    
Maximum Humidity 93    
Minimum Humidity 54    
Precipitation  
Precipitation 0.12 in - - ()
Sea Level Pressure  
Sea Level Pressure 30.36 in    
Wind  
Wind Speed 6 mph (WNW)    
Max Wind Speed 14 mph    
Max Gust Speed 17 mph    
Visibility 9 miles    
Events Rain    
Averages and records for this station are not official NWS values.
T = Trace of Precipitation, MM = Missing Value Source: NWS Daily Summary

Daily Weather History Graph

Daily Weather History Graph

Search for Another Location

Airport:

Trip Planner

Search our weather history database for the weather conditions in past years. The results will help you decide how hot, cold, wet, or windy it might be!

Date:

Astronomy

Nov. 13, 2012 Rise Set
Actual Time 6:55 AM EST 4:47 PM EST
Civil Twilight 6:25 AM EST 5:17 PM EST
Nautical Twilight 5:52 AM EST 5:51 PM EST
Astronomical Twilight 5:19 AM EST 6:24 PM EST
Moon 6:31 AM EST (11/13) 4:38 PM EST (11/13)
Length of Visible Light 10h 51m
Length of Day
9h 51m
Waning Crescent, 0% of the Moon is Illuminated
Nov 13
Waning Crescent
Nov 13
New
Nov 20
First Quarter
Nov 28
Full
Dec 6
Last Quarter

Hourly Weather History & Observations

Time (EST) Temp. Windchill Dew Point Humidity Pressure Visibility Wind Dir Wind Speed Gust Speed Precip Events Conditions
12:53 AM 43.0 °F 39.5 °F 37.9 °F 82% 30.22 in 8.0 mi West 5.8 mph - 0.01 in Rain Light Rain
1:31 AM 41.0 °F 33.5 °F 35.6 °F 81% 30.21 in 4.0 mi West 13.8 mph 17.3 mph 0.04 in Rain Rain
1:53 AM 39.9 °F 33.4 °F 36.0 °F 86% 30.24 in 8.0 mi West 10.4 mph - 0.06 in Rain Light Rain
2:14 AM 39.2 °F 35.0 °F 35.6 °F 87% 30.23 in 10.0 mi West 5.8 mph - 0.01 in Rain Light Rain
2:48 AM 39.2 °F 37.0 °F 35.6 °F 87% 30.23 in 6.0 mi West 3.5 mph - 0.04 in Rain Rain
2:53 AM 39.0 °F 34.8 °F 35.1 °F 86% 30.25 in 7.0 mi West 5.8 mph - 0.04 in Rain Light Rain
3:44 AM 37.4 °F - 35.6 °F 93% 30.25 in 10.0 mi Calm Calm - 0.01 in   Overcast
3:53 AM 37.9 °F - 35.1 °F 89% 30.25 in 10.0 mi Calm Calm - 0.01 in   Overcast
4:53 AM 37.9 °F 35.5 °F 36.0 °F 93% 30.28 in 10.0 mi West 3.5 mph - 0.00 in   Overcast
5:53 AM 37.0 °F 33.3 °F 33.1 °F 86% 30.29 in 10.0 mi West 4.6 mph - N/A   Scattered Clouds
6:53 AM 36.0 °F 32.1 °F 30.9 °F 82% 30.32 in 10.0 mi WSW 4.6 mph - N/A   Overcast
7:53 AM 36.0 °F 32.1 °F 30.0 °F 79% 30.34 in 10.0 mi WSW 4.6 mph - N/A   Overcast
8:53 AM 37.0 °F 31.6 °F 28.9 °F 73% 30.36 in 10.0 mi West 6.9 mph - N/A   Overcast
9:53 AM 37.9 °F 33.5 °F 28.9 °F 70% 30.38 in 10.0 mi WSW 5.8 mph - N/A   Overcast
10:53 AM 37.9 °F 32.7 °F 28.0 °F 68% 30.40 in 10.0 mi West 6.9 mph - N/A   Overcast
11:53 AM 37.9 °F 33.5 °F 28.9 °F 70% 30.39 in 10.0 mi West 5.8 mph - N/A   Overcast
12:53 PM 37.9 °F 32.7 °F 28.0 °F 68% 30.38 in 10.0 mi NW 6.9 mph - N/A   Overcast
1:53 PM 37.0 °F 31.6 °F 28.9 °F 73% 30.39 in 10.0 mi NNW 6.9 mph - N/A   Overcast
2:53 PM 37.0 °F 31.0 °F 28.0 °F 70% 30.40 in 10.0 mi NW 8.1 mph - N/A   Overcast
3:53 PM 36.0 °F 31.1 °F 27.0 °F 70% 30.42 in 10.0 mi NW 5.8 mph - N/A   Overcast
4:53 PM 36.0 °F 31.1 °F 27.0 °F 70% 30.43 in 10.0 mi NW 5.8 mph - N/A   Overcast
5:53 PM 36.0 °F - 27.0 °F 70% 30.46 in 10.0 mi Calm Calm - N/A   Overcast
6:53 PM 36.0 °F - 25.0 °F 64% 30.48 in 10.0 mi Calm Calm - N/A   Overcast
7:53 PM 35.1 °F 29.3 °F 25.0 °F 67% 30.50 in 10.0 mi WNW 6.9 mph - N/A   Overcast
8:53 PM 35.1 °F 29.3 °F 21.0 °F 57% 30.51 in 10.0 mi NNW 6.9 mph - N/A   Overcast
9:53 PM 35.1 °F - 21.0 °F 57% 30.52 in 10.0 mi Calm Calm - N/A   Overcast
10:53 PM 35.1 °F - 23.0 °F 61% 30.52 in 10.0 mi Calm Calm - N/A   Overcast
11:53 PM 35.1 °F 30.1 °F 19.9 °F 54% 30.53 in 10.0 mi North 5.8 mph - N/A   Overcast